LXGBLPFR

Guest
Details From LXGB - Gibraltar
To LPFR - Faro
Flight Number -
Tags generated
Created
Modified
Stats Distance 137 nm / 254 km
Max Altitude 9,500 ft / 2,896 m
Waypoints 4
Social Downloads 1
Likes 0
Share VATSIM

Download

Looking for another format? Having issues loading an existing format? Contact us
Advertisement - Login to hide

Notes

Basic altitude profile: - Ascent Rate: 2500ft/min - Ascent Speed: 250kts - Cruise Altitude: 12000ft - Cruise Speed: 300kts - Descent Rate: 1500ft/min - Descent Speed: 250kts Options: - Use NATs: yes - Use PACOTS: yes - Use low airways: yes - Use high airways: yes

Route

LXGB PIREN W1 VFA LPFR

ID Type Via Altitude (ft/m) Position (lat/lon) Dist (leg/tot) Name
O LXGB APT - 0 / 0 36.15121 / -5.34966 - / 0 nm Gibraltar
PIREN FIX - 6,500 / 1,981 36.83333 / -7.38333 106 / 106 nm
VFA VOR W1 (AWY-LO) 9,500 / 2,896 37.01352 / -7.97501 30 / 136 nm FARO VOR-DME
O LPFR APT - 0 / 0 37.01534 / -7.97233 0 / 136 nm Faro

Altitude Profile

Advertisement - Login to hide

LXGB

Details ICAO LXGB (GIB)
Name Gibraltar
Region Gibralter
Timezone Europe/Gibraltar (UTC+1.0)
Stats Elevation 15 ft / 5 m (AMSL)
Location 36.151200° -5.349850°
Runways 1
Magnetic Variation 0.904° W

METAR

LXGB 171425Z 24014KT 9999 VCSH FEW020 SCT024 BKN040 16/10 Q1018 TEMPO FEW024 RMK WHT TEMPO BLU

Decode

TAF

Not found

Departure Runways

ID Width Length Bearing (true/mag) Surface Threshold Overrun Markings Lighting
09 148 ft / 45 m 5,836 ft / 1,779 m 87.52° / 88.43° ASPHALT 476 ft / 145 m 0 ft / 0 m UK-PREC-APP EDGE THRESHOLD REIL-OMNI
27 148 ft / 45 m 5,836 ft / 1,779 m 267.53° / 268.44° ASPHALT 354 ft / 108 m 0 ft / 0 m UK-PREC-APP EDGE THRESHOLD REIL-OMNI

LPFR

Details ICAO LPFR (FAO)
Name Faro
Region Portugal
Timezone Europe/Lisbon (UTC+0.0)
Stats Elevation 22 ft / 7 m (AMSL)
Location 37.015300° -7.972320°
Runways 1
Magnetic Variation 1.706° W

METAR

LPFR 171430Z 25014KT 9999 FEW028 17/14 Q1017

Decode

TAF

TAF LPFR 171100Z 1712/1812 27010KT 9999 SCT025 BECMG 1712/1715 25015KT BECMG 1720/1723 33008KT SCT012 BKN020 TEMPO 1723/1802 3000 RA BR SCT004 BKN008 BECMG 1802/1805 29008KT CAVOK BECMG 1809/1812 35012KT

Decode

Destination Runways

ID Width Length Bearing (true/mag) Surface Threshold Overrun Markings Lighting
10 148 ft / 45 m 8,179 ft / 2,493 m 100.08° / 101.78° ASPHALT 148 ft / 45 m 0 ft / 0 m PREC-APP EDGE THRESHOLD REIL-OMNI
28 148 ft / 45 m 8,179 ft / 2,493 m 280.09° / 281.80° ASPHALT 144 ft / 44 m 0 ft / 0 m PREC-APP EDGE THRESHOLD REIL-OMNI

Approach Navaids

Runway Type Ident Frequency Range Bearing (true/mag) Slope Elevation
28 DME IIF 109.50 MHz 18 nm / 33 km - - 24 ft / 7 m (AMSL)
28 LOC-ILS IIF 109.50 MHz 18 nm / 33 km 280.08° / 281.79 ° - 22 ft / 7 m (AMSL)
28 GS IIF 109.50 MHz 10 nm / 19 km 280.17° / 281.88 ° 3.00° 24 ft / 7 m (AMSL)

Popular Alternatives